Airfield :
LOGIN :

Register | Disclaimer

   EN    FR    IT 

 










Legend :    VFR   Marginal VFR   IFR   Intensive IFR   Very Intensive IFR
Visi :
Ceiling :
>= 8 km
>= 3000ft
5 to 8 km
1000 to 3000 ft
1500m to 5 km
500 to 1000 ft
800 to 1500m
200 to 500 ft
< 800m
< 200 ft
Symbols :   Thunderstorms  Fog  Heavy snow  Heavy precipitations  Wind > 20 kt
SIGMETs :     Misc.  Thunderstorms  Icing  Turbulence  Mountain Waves  Volcanic Ashes






- Airport Elevation : 46 ft
- IATA code : GPA


LGRX - Araxos

CURRENT METAR :
  • 281150Z 04010KT 9999 FEW030 15/06 Q1013

EXPIRED METARs :
  • 281120Z 04010KT 9999 FEW030 15/06 Q1014
  • 281050Z 05006KT 9999 FEW030 15/06 Q1014 RMK FEW060 BLU
  • 281020Z 04010KT 9999 FEW030 15/07 Q1014
  • 280950Z 06006KT 9999 FEW030 15/07 Q1015
  • 280920Z 06010KT 9999 FEW030 14/07 Q1015

TAF TAF LGRX
Valid from the 28 at 12:00 until the 28 at 21:00 UTC


281100Z 2812/2821 04014KT 9999 SCT020



MET'MAP, your aeronautical weather chart ! - Copyright ORBIFLY December 2007 - Disclaimer

ORBIFLY MET'MAP TEAM :

Programming & Development : Alexandra Zaïnal
Original concept : Baudouin d'Aumeries
Technical & hardware support : Manuel Goepfert
Assistance : Marc-Olivier Méhu




SOURCES & CREDITS :

   NOAA